Back to catalog

STARLINK-31741

AliveCommunicationsVLEO
NORAD 59550·PAYLOAD·🇺🇸 United States

Launched Apr 18, 2024 from Cape Canaveral Space Force Station

Loading…

Next Passes (next 24 hours)

TLE

FreshSource: CelesTrak SupGP

Epoch: Sep 14, 2026, 22:44 UTC

1 59550C 24074S   26257.94770833 -.00020032  00000+0 -72569-3 0  2571
2 59550  43.0016 354.3869 0001531 266.8731  51.0714 15.27582690    15

Track STARLINK-31741 in real time with AllMySat

Download on the App Store